Showing default

AURORA 1, 2876

Orbit data source: Space-Track

AURORA 1, 2876 is an American payload satellite in LEO that was launched on Thu, 29 Jun 1967 UTC via a THOR BURNER 2 launch vehicle from the Air Force Western Test Range (AFWTR). Payload-class satellites include a variety of spacecraft equipped with specific instruments for various scientific and technological missions. These include communications satellites like Starlink; space stations such as the ISS; scientific satellites like the Hubble; Earth observation satellites from companies like Planet Labs, Umbra, and HawkEye 360; GPS; miniature CubeSats for education and research; and military/defense satellites.

Loading next visibility...
Identifier
2876, 1967-065B
Orbit
LEO
Last TLE update
2 days ago
Origin
Manufacturer
Rice
Mission
Civil Science
Bus & Motor
RICE AURORA, Unknown motor
Mass
21 kg wet, 21 kg dry
Launch date (UTC)
1967-06-29 (58 years ago)
Launch vehicle
THOR BURNER 2
Launch site
Air Force Western Test Range (AFWTR)
Object type
Payload
Rocket body
Debris
Shape & HBR
Box, 0.6 m
Radar Cross Section
0.360 m², Medium (>0.1 m² and < 1m²)

Expand to show TLE details & history

TLE from 2 days ago
0 AURORA 1
1 02876U 67065B   25188.77451156 -.00000022  00000-0 -14828-1 0  9997
2 02876  90.0056 313.4564 0071782  72.3853 288.4807  8.36560522360805
Epoch: 2025-07-07T18:35Z
TLE epoch observation values (Epoch: 2025-07-07T18:35:17.798Z)
Latitude
-0.00009°
Longitude
108.65322°
Altitude
3,851.47 km
Speed
6.25 km/s
True Right ascension
20h 53m 49s
True Declination
0° 00' 00"
Sunlit
Object was in full shadow at epoch
Visualization orbit readout
Latitude
-80.12595°
Longitude
-71.37855°
Altitude
3,973.003 km
Speed
6.185 km/s
Apparent Right ascension
07h 41m 01s
Apparent Declination
-65° 17' 09"
Sunlit
Object is in daylight
Visualization observer readout
Local Sidereal Time
19:15:01
Azimuth
186.279° SSW
Elevation
-64.356°
Doppler factor
1
Orbital elements
Apogee altitude
3,943.593 km
Perigee altitude
3,796.466 km
Semi-major axis
10,248.167 km
Eccentricity
0.00718
Inclination
90.0056°
RAAN
313.4564°
Arg. of periapsis
72.3853°
True anomaly
Unknown
Mean anomaly
288.4807°
Eccentric anomaly
Unknown
Mean motion
2.09206 °/min
Orbital period
172.08 mins
BSTAR
-0.014828
Loading maneuver chart data...
Loading SW <> Apogee altitude chart data...
Loading historical data...
Loading historical data...
Loading historical data...
Loading historical data...
Loading historical data...
Loading historical data...
Loading historical data...
Other satellites on launch #65 in the year 1967 (1967-06-29 UTC)

AURORA 1 Visibility forecast

Observer location: undefined°, undefined°

Span
Click to sort rows by Start time (UTC) header in descending order
Start Az.
Max El. time (UTC)
Max El. Az.
Max El.
End time (UTC)
End Az.
38 mins2025-07-09 07:53:35.206Z160.782° S2025-07-09 08:12:35.206Z88.022° E43.869°2025-07-09 08:31:35.206Z0.824° NNE
31 mins2025-07-09 10:51:35.206Z234.226° WSW2025-07-09 11:06:35.206Z289.948° WNW27.08°2025-07-09 11:22:35.206Z347.971° N
23 mins2025-07-09 17:21:35.206Z22.379° NNE2025-07-09 17:32:35.206Z60.109° ENE18.318°2025-07-09 17:44:35.206Z100.676° ESE
38 mins2025-07-09 20:10:35.206Z2.622° NNE2025-07-09 20:28:35.206Z83.553° E44.789°2025-07-09 20:48:35.206Z182.43° SSW
27 mins2025-07-09 23:03:35.206Z347.667° N2025-07-09 23:16:35.206Z301.328° NW24.937°2025-07-09 23:30:35.206Z253.251° W
10 mins2025-07-10 06:55:35.206Z135.577° SSE2025-07-10 07:05:35.206Z109.001° ESE32.551°2025-07-10 07:05:35.206Z109.001° ESE
|